TimeEDT,TemperatureF,Dew PointF,Humidity,Sea Level PressureIn,VisibilityMPH,Wind Direction,Wind SpeedMPH,Gust SpeedMPH,PrecipitationIn,Events,Conditions,WindDirDegrees,DateUTC
12:51 AM,60.1,48.9,67,30.18,10.0,South,11.5,20.7,N/A,,Clear,170,2013-05-01 04:51:00
1:51 AM,60.1,48.9,67,30.17,10.0,SSE,16.1,25.3,N/A,,Clear,160,2013-05-01 05:51:00
2:51 AM,59.0,48.9,69,30.17,10.0,SSE,16.1,26.5,N/A,,Clear,160,2013-05-01 06:51:00
3:51 AM,59.0,48.9,69,30.19,10.0,SSE,15.0,24.2,N/A,,Clear,160,2013-05-01 07:51:00
4:51 AM,57.9,48.9,72,30.20,10.0,SSE,17.3,24.2,N/A,,Clear,150,2013-05-01 08:51:00
5:51 AM,57.9,48.9,72,30.21,10.0,SSE,16.1,28.8,N/A,,Clear,160,2013-05-01 09:51:00
6:51 AM,57.0,48.9,74,30.23,10.0,SSE,16.1,24.2,N/A,,Clear,150,2013-05-01 10:51:00
7:51 AM,59.0,48.9,69,30.25,10.0,SSE,16.1,23.0,N/A,,Clear,150,2013-05-01 11:51:00
8:51 AM,62.1,48.0,60,30.27,10.0,SSE,18.4,25.3,N/A,,Clear,160,2013-05-01 12:51:00
9:51 AM,64.9,48.9,56,30.27,10.0,SSE,11.5,-,N/A,,Clear,160,2013-05-01 13:51:00
10:51 AM,68.0,48.0,49,30.28,10.0,SSE,13.8,-,N/A,,Clear,160,2013-05-01 14:51:00
11:51 AM,71.1,48.9,45,30.28,10.0,SSE,9.2,16.1,N/A,,Clear,160,2013-05-01 15:51:00
12:51 PM,73.9,48.9,41,30.26,10.0,ESE,10.4,-,N/A,,Clear,120,2013-05-01 16:51:00
1:51 PM,71.1,48.9,45,30.26,10.0,North,9.2,-,N/A,,Clear,360,2013-05-01 17:51:00
2:51 PM,71.1,48.0,44,30.26,10.0,North,6.9,-,N/A,,Clear,350,2013-05-01 18:51:00
3:51 PM,70.0,48.0,46,30.26,10.0,NE,10.4,-,N/A,,Clear,40,2013-05-01 19:51:00
4:51 PM,69.1,48.0,47,30.27,10.0,NNE,10.4,-,N/A,,Clear,30,2013-05-01 20:51:00
5:51 PM,69.1,48.0,47,30.26,10.0,NE,10.4,-,N/A,,Clear,50,2013-05-01 21:51:00
6:51 PM,69.1,48.0,47,30.26,10.0,NE,9.2,-,N/A,,Clear,50,2013-05-01 22:51:00
7:51 PM,66.9,48.9,52,30.27,10.0,ENE,6.9,-,N/A,,Clear,60,2013-05-01 23:51:00
8:51 PM,64.9,48.9,56,30.28,10.0,ENE,5.8,-,N/A,,Clear,60,2013-05-02 00:51:00
9:51 PM,64.9,48.9,56,30.30,10.0,ENE,3.5,-,N/A,,Clear,70,2013-05-02 01:51:00
10:51 PM,61.0,51.1,70,30.30,10.0,ESE,3.5,-,N/A,,Clear,110,2013-05-02 02:51:00
11:51 PM,64.9,39.0,39,30.28,10.0,SSE,11.5,-,N/A,,Clear,150,2013-05-02 03:51:00